BOE65J EFHK-ULLI

Flight info

Callsign BOE65J
Flight time 0h 39m
Altitude 21000
Route ARVEP T82 RATMU DCT OLEMA/K0745F210 L24 AKARU AKARU1V
Aircraft B77W/H-SDE1E2E3FGHIJ2J3J4J5M1RWXY/LB1D1

Departure

Time 2026-04-23 18:36
Airport Helsinki Vantaa Airport (EFHK)

Arrival

Time 2026-04-23 19:16
Airport Pulkovo Airport (ULLI)
Time Latitude Longitude Altitude Speed Heading
2026-04-23 18:03 60.31424 24.95494 165 ft 0 kts 137°
2026-04-23 18:20 60.31428 24.95488 165 ft 1 kts 137°
2026-04-23 18:21 60.31433 24.95477 165 ft 1 kts 137°
2026-04-23 18:21 60.31439 24.95466 165 ft 1 kts 137°
2026-04-23 18:21 60.31447 24.95452 164 ft 2 kts 137°
2026-04-23 18:21 60.31459 24.95433 164 ft 2 kts 153°
2026-04-23 18:22 60.31473 24.95425 164 ft 2 kts 194°
2026-04-23 18:22 60.31487 24.95436 164 ft 2 kts 212°
2026-04-23 18:22 60.31496 24.95447 164 ft 0 kts 223°
2026-04-23 18:26 60.31490 24.95435 164 ft 9 kts 223°
2026-04-23 18:26 60.31464 24.95386 164 ft 0 kts 223°
2026-04-23 18:26 60.31461 24.95380 164 ft 0 kts 223°
2026-04-23 18:27 60.31453 24.95260 163 ft 22 kts 293°
2026-04-23 18:27 60.31514 24.95079 161 ft 11 kts 265°
2026-04-23 18:27 60.31464 24.94933 160 ft 19 kts 227°
2026-04-23 18:27 60.31345 24.94678 159 ft 27 kts 227°
2026-04-23 18:28 60.31222 24.94400 157 ft 27 kts 227°
2026-04-23 18:28 60.31097 24.94130 156 ft 20 kts 227°
2026-04-23 18:28 60.31077 24.94088 155 ft 0 kts 227°
2026-04-23 18:29 60.31077 24.94087 155 ft 1 kts 227°
2026-04-23 18:29 60.31067 24.94064 155 ft 4 kts 228°
2026-04-23 18:30 60.31051 24.94028 155 ft 1 kts 232°
2026-04-23 18:30 60.31050 24.94024 155 ft 0 kts 232°
2026-04-23 18:30 60.31048 24.94020 155 ft 1 kts 232°
2026-04-23 18:30 60.31042 24.94004 155 ft 6 kts 234°
2026-04-23 18:31 60.31030 24.93893 154 ft 7 kts 287°
2026-04-23 18:31 60.31033 24.93878 154 ft 1 kts 291°
2026-04-23 18:33 60.31041 24.93844 154 ft 9 kts 298°
2026-04-23 18:33 60.31093 24.93730 152 ft 13 kts 319°
2026-04-23 18:34 60.31148 24.93687 151 ft 8 kts 29°
2026-04-23 18:34 60.31175 24.93734 152 ft 0 kts 44°
2026-04-23 18:35 60.31190 24.93765 153 ft 17 kts 45°
2026-04-23 18:36 60.31501 24.94441 157 ft 117 kts 48°
2026-04-23 18:36 60.32240 24.96085 288 ft 188 kts 47°
2026-04-23 18:36 60.33145 24.98190 967 ft 206 kts 46°
2026-04-23 18:36 60.34087 25.00375 2228 ft 207 kts 45°
2026-04-23 18:37 60.35090 25.02626 3272 ft 225 kts 43°
2026-04-23 18:37 60.36197 25.05021 4116 ft 241 kts 44°
2026-04-23 18:37 60.37371 25.07634 5149 ft 258 kts 44°
2026-04-23 18:37 60.38593 25.10331 6469 ft 261 kts 47°
2026-04-23 18:38 60.39561 25.13540 7598 ft 278 kts 66°
2026-04-23 18:38 60.39749 25.17539 8604 ft 303 kts 96°
2026-04-23 18:38 60.38881 25.21496 9714 ft 324 kts 120°
2026-04-23 18:38 60.37470 25.25166 10573 ft 342 kts 123°
2026-04-23 18:39 60.36159 25.29362 10980 ft 366 kts 108°
2026-04-23 18:39 60.35608 25.33521 11680 ft 369 kts 91°
2026-04-23 18:39 60.35352 25.38741 12796 ft 378 kts 88°
2026-04-23 18:39 60.35111 25.44093 14084 ft 386 kts 88°
2026-04-23 18:40 60.34858 25.49536 15355 ft 392 kts 87°
2026-04-23 18:40 60.34592 25.55065 16597 ft 399 kts 86°
2026-04-23 18:40 60.34313 25.60719 17803 ft 408 kts 86°
2026-04-23 18:40 60.34024 25.66480 18894 ft 417 kts 86°
2026-04-23 18:41 60.33721 25.72346 20003 ft 423 kts 86°
2026-04-23 18:41 60.33409 25.78294 20756 ft 429 kts 85°
2026-04-23 18:41 60.33087 25.84295 20869 ft 431 kts 86°
2026-04-23 18:41 60.32758 25.90321 20858 ft 429 kts 86°
2026-04-23 18:42 60.32427 25.96286 20857 ft 427 kts 86°
2026-04-23 18:42 60.32096 26.02243 20862 ft 427 kts 86°
2026-04-23 18:42 60.31767 26.08193 20861 ft 427 kts 86°
2026-04-23 18:42 60.31436 26.14156 20861 ft 428 kts 86°
2026-04-23 18:43 60.31101 26.20134 20860 ft 428 kts 86°
2026-04-23 18:43 60.30763 26.26113 20859 ft 429 kts 86°
2026-04-23 18:43 60.30423 26.32093 20858 ft 429 kts 86°
2026-04-23 18:43 60.30084 26.37977 20902 ft 429 kts 86°
2026-04-23 18:44 60.29736 26.43961 20863 ft 429 kts 86°
2026-04-23 18:44 60.29386 26.49929 20861 ft 428 kts 86°
2026-04-23 18:44 60.29035 26.55878 20847 ft 427 kts 86°
2026-04-23 18:44 60.28682 26.61824 20852 ft 426 kts 86°
2026-04-23 18:45 60.28328 26.67747 20856 ft 425 kts 86°
2026-04-23 18:45 60.27971 26.73677 20844 ft 424 kts 86°
2026-04-23 18:45 60.27613 26.79577 20848 ft 424 kts 86°
2026-04-23 18:45 60.27259 26.85377 20850 ft 424 kts 86°
2026-04-23 18:46 60.26894 26.91321 20839 ft 425 kts 86°
2026-04-23 18:46 60.26528 26.97218 20845 ft 425 kts 86°
2026-04-23 18:46 60.26169 27.03132 20843 ft 425 kts 86°
2026-04-23 18:46 60.25809 27.09037 20843 ft 425 kts 86°
2026-04-23 18:47 60.25439 27.14950 20839 ft 426 kts 86°
2026-04-23 18:47 60.25060 27.20870 20852 ft 426 kts 87°
2026-04-23 18:47 60.24674 27.26786 20838 ft 427 kts 87°
2026-04-23 18:47 60.24285 27.32709 20838 ft 427 kts 87°
2026-04-23 18:48 60.23891 27.38669 20845 ft 427 kts 87°
2026-04-23 18:48 60.23496 27.44586 20847 ft 427 kts 87°
2026-04-23 18:48 60.23156 27.50505 20842 ft 424 kts 84°
2026-04-23 18:48 60.22920 27.56406 20839 ft 422 kts 83°
2026-04-23 18:49 60.22715 27.62297 20838 ft 422 kts 83°
2026-04-23 18:49 60.22517 27.68171 20873 ft 422 kts 83°
2026-04-23 18:49 60.22313 27.74084 20849 ft 423 kts 83°
2026-04-23 18:49 60.22102 27.79986 20884 ft 423 kts 84°
2026-04-23 18:50 60.21958 27.83889 20853 ft 423 kts 84°
2026-04-23 18:50 60.21658 27.91779 20841 ft 422 kts 84°
2026-04-23 18:50 60.21428 27.97652 20823 ft 419 kts 84°
2026-04-23 18:50 60.21196 28.03471 20598 ft 415 kts 84°
2026-04-23 18:51 60.20965 28.09247 20289 ft 414 kts 84°
2026-04-23 18:51 60.20733 28.15018 19972 ft 413 kts 84°
2026-04-23 18:51 60.20503 28.20689 19679 ft 411 kts 84°
2026-04-23 18:51 60.20268 28.26404 19405 ft 409 kts 85°
2026-04-23 18:52 60.20032 28.32083 19136 ft 407 kts 85°
2026-04-23 18:52 60.19795 28.37740 18873 ft 405 kts 85°
2026-04-23 18:52 60.19557 28.43375 18618 ft 403 kts 85°
2026-04-23 18:52 60.19317 28.48996 18365 ft 402 kts 85°
2026-04-23 18:53 60.19077 28.54578 18197 ft 399 kts 86°
2026-04-23 18:53 60.18835 28.60108 17963 ft 396 kts 86°
2026-04-23 18:53 60.18560 28.65610 17673 ft 397 kts 89°
2026-04-23 18:53 60.18124 28.71116 17382 ft 399 kts 91°
2026-04-23 18:54 60.17615 28.76583 17128 ft 398 kts 92°
2026-04-23 18:54 60.17092 28.82047 16888 ft 397 kts 92°
2026-04-23 18:54 60.16585 28.87436 16641 ft 395 kts 92°
2026-04-23 18:54 60.16086 28.92841 16404 ft 393 kts 92°
2026-04-23 18:55 60.15595 28.98241 16173 ft 391 kts 92°
2026-04-23 18:55 60.15111 29.03604 15945 ft 390 kts 92°
2026-04-23 18:55 60.14780 29.07274 15794 ft 389 kts 92°
2026-04-23 18:55 60.14299 29.12601 15572 ft 388 kts 92°
2026-04-23 18:56 60.13978 29.16133 15433 ft 387 kts 92°
2026-04-23 18:56 60.13329 29.23226 15204 ft 385 kts 93°
2026-04-23 18:56 60.12844 29.28499 15023 ft 383 kts 93°
2026-04-23 18:56 60.12361 29.33742 14807 ft 382 kts 93°
2026-04-23 18:57 60.11877 29.38980 14611 ft 381 kts 94°
2026-04-23 18:57 60.11393 29.44206 14422 ft 380 kts 94°
2026-04-23 18:57 60.10909 29.49409 14237 ft 379 kts 94°
2026-04-23 18:57 60.10424 29.54590 14061 ft 378 kts 94°
2026-04-23 18:58 60.09938 29.59769 13878 ft 377 kts 94°
2026-04-23 18:58 60.09454 29.64911 13767 ft 374 kts 95°
2026-04-23 18:58 60.08968 29.70035 13607 ft 373 kts 95°
2026-04-23 18:58 60.08484 29.75131 13397 ft 372 kts 95°
2026-04-23 18:59 60.08161 29.78510 13279 ft 372 kts 95°
2026-04-23 18:59 60.07674 29.83592 13086 ft 371 kts 95°
2026-04-23 18:59 60.07188 29.88648 12961 ft 368 kts 95°
2026-04-23 18:59 60.06707 29.93638 12888 ft 363 kts 95°
2026-04-23 19:00 60.06225 29.98604 12828 ft 363 kts 95°
2026-04-23 19:00 60.05581 30.05185 12791 ft 365 kts 96°
2026-04-23 19:00 60.05172 30.08550 12444 ft 371 kts 100°
2026-04-23 19:00 60.04404 30.13476 11978 ft 370 kts 103°
2026-04-23 19:01 60.03590 30.18268 11539 ft 365 kts 103°
2026-04-23 19:01 60.02781 30.23019 11117 ft 357 kts 103°
2026-04-23 19:01 60.02001 30.27683 10712 ft 350 kts 102°
2026-04-23 19:01 60.01250 30.32266 10308 ft 343 kts 102°
2026-04-23 19:02 60.00520 30.36773 9918 ft 338 kts 102°
2026-04-23 19:02 59.99806 30.41195 9612 ft 326 kts 102°
2026-04-23 19:02 59.99132 30.45341 9337 ft 299 kts 102°
2026-04-23 19:02 59.98514 30.49169 8919 ft 282 kts 101°
2026-04-23 19:03 59.97924 30.52835 8445 ft 276 kts 102°
2026-04-23 19:03 59.97340 30.56453 8154 ft 272 kts 103°
2026-04-23 19:03 59.96758 30.60027 7869 ft 267 kts 103°
2026-04-23 19:03 59.96192 30.63506 7653 ft 262 kts 103°
2026-04-23 19:04 59.95628 30.66966 7450 ft 263 kts 103°
2026-04-23 19:04 59.95058 30.70457 7243 ft 265 kts 103°
2026-04-23 19:04 59.94490 30.73915 7046 ft 262 kts 103°
2026-04-23 19:04 59.93923 30.77354 6846 ft 258 kts 104°
2026-04-23 19:05 59.93157 30.80560 6693 ft 257 kts 119°
2026-04-23 19:05 59.92100 30.83430 6579 ft 257 kts 123°
2026-04-23 19:05 59.91005 30.86242 6445 ft 256 kts 123°
2026-04-23 19:05 59.89929 30.89061 6316 ft 255 kts 123°
2026-04-23 19:06 59.88867 30.91898 6186 ft 255 kts 122°
2026-04-23 19:06 59.87814 30.94734 6039 ft 255 kts 122°
2026-04-23 19:06 59.86766 30.97564 5920 ft 254 kts 122°
2026-04-23 19:06 59.85643 31.00268 5811 ft 255 kts 137°
2026-04-23 19:07 59.84030 31.01838 5812 ft 261 kts 160°
2026-04-23 19:07 59.82221 31.02383 5412 ft 270 kts 188°
2026-04-23 19:07 59.80577 31.00913 5143 ft 260 kts 225°
2026-04-23 19:07 59.79678 30.98035 4824 ft 235 kts 258°
2026-04-23 19:08 59.79304 30.94992 4541 ft 224 kts 262°
2026-04-23 19:08 59.78942 30.91978 4294 ft 223 kts 262°
2026-04-23 19:08 59.78589 30.88999 4016 ft 221 kts 262°
2026-04-23 19:08 59.78240 30.86027 3707 ft 220 kts 262°
2026-04-23 19:09 59.77896 30.83079 3403 ft 217 kts 262°
2026-04-23 19:09 59.77560 30.80203 3139 ft 209 kts 262°
2026-04-23 19:09 59.77236 30.77413 2951 ft 208 kts 262°
2026-04-23 19:09 59.76910 30.74611 2769 ft 208 kts 261°
2026-04-23 19:10 59.76587 30.71847 2644 ft 205 kts 261°
2026-04-23 19:10 59.76266 30.69093 2614 ft 204 kts 262°
2026-04-23 19:10 59.75945 30.66358 2613 ft 206 kts 261°
2026-04-23 19:10 59.75619 30.63579 2618 ft 207 kts 261°
2026-04-23 19:11 59.75292 30.60809 2635 ft 205 kts 261°
2026-04-23 19:11 59.74982 30.58057 2608 ft 202 kts 267°
2026-04-23 19:11 59.75102 30.55367 2620 ft 196 kts 287°
2026-04-23 19:11 59.75425 30.52703 2622 ft 200 kts 289°
2026-04-23 19:12 59.75797 30.50081 2544 ft 193 kts 290°
2026-04-23 19:12 59.76160 30.47625 2259 ft 177 kts 291°
2026-04-23 19:12 59.76493 30.45384 2006 ft 161 kts 291°
2026-04-23 19:12 59.76794 30.43363 1798 ft 145 kts 291°
2026-04-23 19:13 59.77063 30.41540 1616 ft 134 kts 291°
2026-04-23 19:13 59.77310 30.39739 1511 ft 137 kts 290°
2026-04-23 19:13 59.77593 30.37924 1335 ft 137 kts 292°
2026-04-23 19:13 59.77896 30.36083 1047 ft 140 kts 288°
2026-04-23 19:14 59.78138 30.34235 810 ft 136 kts 287°
2026-04-23 19:14 59.78402 30.32464 631 ft 134 kts 289°
2026-04-23 19:14 59.78678 30.30727 397 ft 134 kts 287°
2026-04-23 19:14 59.78932 30.28955 222 ft 134 kts 287°
2026-04-23 19:15 59.79192 30.27201 95 ft 125 kts 288°
2026-04-23 19:15 59.79409 30.25729 85 ft 94 kts 288°
2026-04-23 19:15 59.79564 30.24732 83 ft 61 kts 287°
2026-04-23 19:15 59.79677 30.23974 70 ft 57 kts 287°
2026-04-23 19:16 59.79791 30.23315 67 ft 31 kts 308°
2026-04-23 19:16 59.79903 30.23067 66 ft 6 kts 319°
2026-04-23 19:16 59.79911 30.23054 65 ft 0 kts 321°
2026-04-23 19:18 59.79974 30.23075 70 ft 14 kts 65°
2026-04-23 19:18 59.79960 30.23265 71 ft 15 kts 104°
2026-04-23 19:18 59.79931 30.23471 67 ft 16 kts 106°
2026-04-23 19:18 59.79895 30.23688 73 ft 17 kts 110°
2026-04-23 19:19 59.79828 30.24157 70 ft 18 kts 104°
2026-04-23 19:19 59.79796 30.24401 71 ft 18 kts 107°
2026-04-23 19:20 59.79717 30.24900 84 ft 19 kts 107°
2026-04-23 19:20 59.79679 30.25157 84 ft 19 kts 105°
2026-04-23 19:20 59.79643 30.25412 83 ft 19 kts 105°
2026-04-23 19:20 59.79606 30.25673 84 ft 20 kts 105°
2026-04-23 19:21 59.79566 30.25934 85 ft 20 kts 110°
2026-04-23 19:21 59.79525 30.26330 85 ft 10 kts 48°
2026-04-23 19:21 59.79596 30.26400 85 ft 12 kts 18°
2026-04-23 19:22 59.79684 30.26457 85 ft 14 kts 17°
2026-04-23 19:22 59.79785 30.26506 83 ft 16 kts 14°
2026-04-23 19:22 59.80013 30.26647 86 ft 19 kts 17°
2026-04-23 19:23 59.80143 30.26713 81 ft 20 kts 15°
2026-04-23 19:23 59.80197 30.26813 83 ft 0 kts 110°
2026-04-23 19:23 59.80193 30.26854 84 ft 2 kts 104°
2026-04-23 19:24 59.80192 30.26857 84 ft 0 kts 105°